Flag for Germany Weather past 2 weeks in Bühl, Baden-Württemberg, Germany

Now
46 °F

Snow. Scattered clouds.


Feels Like: 46 °F
Forecast: 42 / 60 °F
Wind: 2 mph from North

Location: Karlsruhe - Baden Wurttemberg

Current Time: Oct 24, 2014 at 1:26:29 PM

Latest Report: Oct 24, 2014 at 12:50 PM


Visibility: 6 mi

Pressure: 30.18 "Hg

Humidity: 93%

Dew point: 45 °F

Location of BühlLocation

Historic Weather in Bühl — Graph

°F

Bühl temperature yesterday

Maximum temperature yesterday: 55 °F (at 3:20 PM)
Minimum temperature yesterday: 43 °F (at 8:50 PM)
Average temperature yesterday: 49 °F

Past Weeks' High & Low Weather Summary

 TemperatureHumidityPressure
High75 °F (Oct 19, 2:50 PM)100% (Oct 12, 5:50 AM)30.30 "Hg (Oct 12, 5:50 AM)
Low36 °F (Oct 24, 6:20 AM)50% (Oct 19, 3:50 PM)29.65 "Hg (Oct 21, 5:20 PM)
Average58 °F82%29.97 "Hg
* Reported Oct 9 12:20 PM — Oct 24 12:20 PM, Bühl, Weather by CustomWeather, © 2014

Note: Actual official high and low records may vary slightly from our data, if they occured in-between our weather recording intervals... More about our weather records

Advertising

Bühl weather history for previous 24 hours

 ConditionsComfort  
Time TempWeatherWind HumidityBarometerVisibility
12:20 PM
Oct 24
45 °FFog.2 mph93%30.21 "Hg2 mi
11:50 AM43 °FFog.2 mph100%30.21 "Hg1 mi
11:20 AM43 °FFog.3 mph93%30.21 "Hg1 mi
10:50 AM41 °FFog.2 mph100%30.21 "Hg1 mi
10:20 AM41 °FFog.3 mph100%30.21 "Hg0 mi
9:50 AM41 °FFog.2 mph100%30.21 "Hg1 mi
9:20 AM37 °FFog.2 mph100%30.21 "Hg1 mi
8:50 AM39 °FFog.2 mph93%30.21 "Hg0 mi
8:20 AM39 °FFog.2 mph93%30.21 "Hg0 mi
7:50 AM39 °FFog.1 mph93%30.21 "Hg0 mi
7:20 AM37 °FFog.5 mph100%30.21 "Hg0 mi
6:50 AM37 °FFog.3 mph93%30.21 "Hg0 mi
6:20 AM36 °FFog.1 mph100%30.21 "Hg1 mi
5:50 AM37 °FFog.1 mph100%30.21 "Hg1 mi
5:20 AM37 °FFog.No wind100%30.21 "Hg0 mi
4:20 AM39 °FFog.3 mph100%30.24 "Hg1 mi
11:20 PM
Oct 23
45 °FPassing clouds.2 mph93%30.27 "HgN/A
10:50 PM43 °FClear.1 mph93%30.27 "Hg10 mi
10:20 PM43 °FClear.2 mph93%30.27 "Hg10 mi
9:50 PM43 °FClear.2 mph93%30.24 "Hg10 mi
9:20 PM45 °FClear.No wind87%30.24 "Hg10 mi
8:50 PM43 °FClear.No wind93%30.27 "Hg10 mi
8:20 PM45 °FClear.1 mph87%30.27 "Hg10 mi
7:50 PM48 °FClear.1 mph76%30.27 "Hg10 mi
7:20 PM46 °FSunny.No wind82%30.24 "Hg10 mi
6:50 PM50 °FPartly sunny.3 mph76%30.24 "HgN/A
6:20 PM50 °FSunny.3 mph71%30.24 "Hg10 mi
5:50 PM52 °FPartly sunny.5 mph72%30.24 "HgN/A
5:20 PM54 °FBroken clouds.3 mph67%30.24 "HgN/A
4:50 PM54 °FScattered clouds.5 mph67%30.24 "HgN/A
4:20 PM55 °FScattered clouds.3 mph59%30.24 "HgN/A
3:50 PM55 °FScattered clouds.5 mph59%30.27 "HgN/A
3:20 PM55 °FScattered clouds.3 mph63%30.27 "HgN/A
2:50 PM54 °FScattered clouds.3 mph67%30.27 "HgN/A
2:20 PM52 °FScattered clouds.5 mph72%30.27 "HgN/A
1:50 PM52 °FSprinkles. Scattered clouds.6 mph82%30.30 "Hg6 mi
1:20 PM50 °FLight rain. Broken clouds.5 mph76%30.30 "Hg5 mi
Weather by CustomWeather, © 2014

See weather overviewHow to use our weather pages